Weather History for Lexington, NE

Change the Weather History Date:

Wednesday, March 20, 2013

  Actual Average Record
Temperature  
Mean Temperature 30 °F -  
Max Temperature 46 °F 51 °F 138 °F (1999)
Min Temperature 14 °F 26 °F 14 °F (2013)
Degree Days  
Heating Degree Days 35    
Moisture  
Dew Point 14 °F    
Average Humidity 53    
Maximum Humidity 86    
Minimum Humidity 26    
Precipitation  
Precipitation 0.00 in - - ()
Sea Level Pressure  
Sea Level Pressure 30.21 in    
Wind  
Wind Speed 7 mph (SW)    
Max Wind Speed 15 mph    
Max Gust Speed 23 mph    
Visibility 10 miles    
Events      
Averages and records for this station are not official NWS values.
T = Trace of Precipitation, MM = Missing Value Source: NWS Daily Summary

Daily Weather History Graph

Daily Weather History Graph

Search for Another Location

Airport:

Trip Planner

Search our weather history database for the weather conditions in past years. The results will help you decide how hot, cold, wet, or windy it might be!

Date:

Astronomy

Mar. 20, 2013 Rise Set
Actual Time 7:41 AM CDT 7:51 PM CDT
Civil Twilight 7:14 AM CDT 8:18 PM CDT
Nautical Twilight 6:42 AM CDT 8:50 PM CDT
Astronomical Twilight 6:10 AM CDT 9:23 PM CDT
Moon 1:26 PM CDT (3/20) 3:24 AM CDT (3/20)
Length of Visible Light 13h 04m
Length of Day
12h 09m
First Quarter, 59% of the Moon is Illuminated
Mar 20
First Quarter
Mar 27
Full
Apr 2
Last Quarter
Apr 10
New
Apr 18
First Quarter

Hourly Weather History & Observations

Time (CDT) Temp. Windchill Dew Point Humidity Pressure Visibility Wind Dir Wind Speed Gust Speed Precip Events Conditions
12:15 AM 28.2 °F 22.0 °F 14.0 °F 55% 30.34 in 10.0 mi North 5.8 mph - N/A   Clear
12:35 AM 25.7 °F 18.0 °F 14.0 °F 61% 30.34 in 10.0 mi North 6.9 mph - N/A   Clear
12:55 AM 24.8 °F 16.9 °F 15.3 °F 67% 30.35 in 10.0 mi North 6.9 mph - N/A   Clear
1:15 AM 23.9 °F 19.5 °F 15.8 °F 71% 30.36 in 10.0 mi North 3.5 mph - N/A   Clear
1:35 AM 22.3 °F 13.0 °F 15.4 °F 75% 30.37 in 10.0 mi NNW 8.1 mph - N/A   Clear
1:55 AM 23.5 °F 17.6 °F 16.2 °F 73% 30.37 in 10.0 mi NW 4.6 mph - N/A   Clear
2:15 AM 21.2 °F 11.7 °F 14.9 °F 77% 30.38 in 10.0 mi NNW 8.1 mph - N/A   Clear
2:35 AM 20.3 °F 11.5 °F 15.3 °F 81% 30.39 in 10.0 mi NW 6.9 mph - N/A   Clear
2:55 AM 20.3 °F 12.5 °F 14.9 °F 80% 30.38 in 10.0 mi NW 5.8 mph - N/A   Clear
3:15 AM 19.8 °F 10.8 °F 14.9 °F 81% 30.38 in 10.0 mi NW 6.9 mph - N/A   Clear
3:35 AM 19.2 °F 9.3 °F 14.4 °F 81% 30.37 in 10.0 mi NW 8.1 mph - N/A   Clear
3:55 AM 19.2 °F 11.3 °F 14.5 °F 82% 30.37 in 10.0 mi NW 5.8 mph - N/A   Clear
4:15 AM 19.2 °F 12.5 °F 14.5 °F 82% 30.37 in 10.0 mi NNW 4.6 mph - N/A   Clear
4:35 AM 18.3 °F 9.1 °F 13.8 °F 83% 30.36 in 10.0 mi NW 6.9 mph - N/A   Clear
4:55 AM 17.8 °F 9.6 °F 13.3 °F 83% 30.36 in 10.0 mi NW 5.8 mph - N/A   Clear
5:15 AM 18.1 °F 10.0 °F 13.8 °F 83% 30.35 in 10.0 mi WNW 5.8 mph - N/A   Clear
5:35 AM 17.4 °F 9.1 °F 13.5 °F 84% 30.35 in 10.0 mi WNW 5.8 mph - N/A   Clear
5:55 AM 17.8 °F 8.5 °F 13.1 °F 82% 30.35 in 10.0 mi WNW 6.9 mph - N/A   Clear
6:15 AM 17.1 °F 7.6 °F 12.4 °F 82% 30.35 in 10.0 mi WNW 6.9 mph - N/A   Clear
6:35 AM 17.1 °F 7.6 °F 12.7 °F 83% 30.35 in 10.0 mi WNW 6.9 mph - N/A   Clear
6:55 AM 16.2 °F 10.6 °F 11.7 °F 82% 30.35 in 10.0 mi NW 3.5 mph - N/A   Clear
7:15 AM 15.8 °F 7.2 °F 11.3 °F 82% 30.34 in 10.0 mi WNW 5.8 mph - N/A   Clear
7:35 AM 14.2 °F 6.7 °F 10.6 °F 86% 30.35 in 10.0 mi NW 4.6 mph - N/A   Clear
7:55 AM 14.9 °F 9.2 °F 10.9 °F 84% 30.35 in 10.0 mi WNW 3.5 mph - N/A   Clear
8:15 AM 16.3 °F 10.8 °F 12.4 °F 84% 30.35 in 10.0 mi NW 3.5 mph - N/A   Clear
8:35 AM 18.1 °F 11.3 °F 13.6 °F 83% 30.35 in 10.0 mi WNW 4.6 mph - N/A   Clear
8:55 AM 19.8 °F 13.2 °F 13.8 °F 78% 30.34 in 10.0 mi West 4.6 mph - N/A   Clear
9:15 AM 21.7 °F 14.3 °F 14.4 °F 73% 30.35 in 10.0 mi West 5.8 mph - N/A   Clear
9:35 AM 24.3 °F 17.3 °F 15.1 °F 68% 30.35 in 10.0 mi West 5.8 mph - N/A   Clear
9:55 AM 25.9 °F 19.2 °F 13.5 °F 59% 30.34 in 10.0 mi WNW 5.8 mph - N/A   Clear
10:15 AM 28.0 °F - 12.0 °F 51% 30.34 in 10.0 mi Calm Calm - N/A   Clear
10:35 AM 28.9 °F - 11.1 °F 47% 30.34 in 10.0 mi Calm Calm - N/A   Clear
10:55 AM 30.2 °F - 10.6 °F 44% 30.33 in 10.0 mi Calm Calm - N/A   Clear
11:15 AM 31.6 °F 28.3 °F 9.9 °F 40% 30.33 in 10.0 mi West 3.5 mph - N/A   Clear
11:35 AM 32.2 °F - 8.6 °F 37% 30.32 in 10.0 mi Calm Calm - N/A   Clear
11:55 AM 33.8 °F - 8.4 °F 35% 30.31 in 10.0 mi Calm Calm - N/A   Clear
12:15 PM 35.1 °F - 8.8 °F 34% 30.29 in 10.0 mi Calm Calm - N/A   Clear
12:35 PM 35.6 °F 32.8 °F 7.9 °F 32% 30.28 in 10.0 mi West 3.5 mph - N/A   Clear
12:55 PM 37.2 °F - 8.1 °F 30% 30.27 in 10.0 mi Calm Calm - N/A   Clear
1:15 PM 37.2 °F 33.6 °F 8.1 °F 30% 30.24 in 10.0 mi SE 4.6 mph - N/A   Clear
1:35 PM 39.2 °F 33.6 °F 7.5 °F 27% 30.23 in 10.0 mi WSW 8.1 mph - N/A   Clear
1:55 PM 39.6 °F 34.0 °F 7.9 °F 27% 30.21 in 10.0 mi South 8.1 mph - N/A   Clear
2:15 PM 41.9 °F 36.3 °F 9.5 °F 27% 30.19 in 10.0 mi SSE 9.2 mph - N/A   Clear
2:35 PM 42.1 °F 37.1 °F 9.1 °F 26% 30.17 in 10.0 mi SE 8.1 mph - N/A   Clear
2:55 PM 43.3 °F 38.1 °F 11.1 °F 27% 30.15 in 10.0 mi SSE 9.2 mph 16.1 mph N/A   Clear
3:15 PM 43.5 °F 38.3 °F 10.9 °F 27% 30.13 in 10.0 mi SSW 9.2 mph - N/A   Clear
3:35 PM 43.9 °F 38.3 °F 11.3 °F 27% 30.11 in 10.0 mi SSW 10.4 mph - N/A   Clear
3:55 PM 44.8 °F 39.4 °F 12.0 °F 27% 30.10 in 10.0 mi South 10.4 mph 16.1 mph N/A   Clear
4:15 PM 45.9 °F 40.8 °F 12.9 °F 27% 30.08 in 10.0 mi South 10.4 mph - N/A   Clear
4:35 PM 46.4 °F 40.7 °F 13.1 °F 26% 30.07 in 10.0 mi South 12.7 mph 16.1 mph N/A   Clear
4:55 PM 46.8 °F - 13.3 °F 26% 30.06 in 10.0 mi South 12.7 mph 19.6 mph N/A   Clear
5:15 PM 46.6 °F - 13.1 °F 26% 30.05 in 10.0 mi South 11.5 mph - N/A   Clear
5:35 PM 46.8 °F - 13.3 °F 26% 30.05 in 10.0 mi SSW 10.4 mph 18.4 mph N/A   Clear
5:55 PM 46.2 °F 40.1 °F 14.2 °F 28% 30.04 in 10.0 mi South 13.8 mph 18.4 mph N/A   Clear
6:15 PM 45.7 °F 39.5 °F 14.4 °F 28% 30.03 in 10.0 mi South 13.8 mph 17.3 mph N/A   Clear
6:35 PM 44.8 °F 38.7 °F 14.9 °F 30% 30.02 in 10.0 mi SSE 12.7 mph 17.3 mph N/A   Clear
6:55 PM 44.2 °F 38.4 °F 14.7 °F 30% 30.01 in 10.0 mi SSE 11.5 mph - N/A   Clear
7:15 PM 43.7 °F 36.9 °F 14.9 °F 31% 30.00 in 10.0 mi SE 13.8 mph - N/A   Clear
7:35 PM 42.3 °F 35.9 °F 15.4 °F 34% 29.99 in 10.0 mi SE 11.5 mph - N/A   Clear
7:55 PM 41.4 °F 34.3 °F 15.4 °F 35% 29.98 in 10.0 mi SE 12.7 mph - N/A   Clear
8:15 PM 40.3 °F 33.0 °F 16.5 °F 38% 29.97 in 10.0 mi SE 12.7 mph - N/A   Clear
8:35 PM 39.2 °F 32.5 °F 17.1 °F 41% 29.97 in 10.0 mi SE 10.4 mph - N/A   Clear
8:55 PM 38.3 °F 30.9 °F 18.0 °F 44% 29.96 in 10.0 mi SE 11.5 mph - N/A   Clear
9:15 PM 38.3 °F 31.4 °F 17.6 °F 43% 29.96 in 10.0 mi SE 10.4 mph - N/A   Clear
9:35 PM 37.6 °F 30.0 °F 18.3 °F 46% 29.95 in 10.0 mi SE 11.5 mph 18.4 mph N/A   Clear
9:55 PM 37.4 °F 29.3 °F 19.0 °F 48% 29.94 in 10.0 mi SE 12.7 mph 18.4 mph N/A   Mostly Cloudy
10:15 PM 37.4 °F 28.5 °F 18.5 °F 46% 29.95 in 10.0 mi SE 15.0 mph 19.6 mph N/A   Overcast
10:35 PM 36.7 °F 27.6 °F 19.2 °F 49% 29.94 in 10.0 mi SE 15.0 mph 23.0 mph N/A   Overcast
10:55 PM 36.5 °F 28.7 °F 19.4 °F 50% 29.96 in 10.0 mi SE 11.5 mph - N/A   Mostly Cloudy
11:15 PM 36.5 °F 27.4 °F 19.9 °F 51% 29.96 in 10.0 mi SE 15.0 mph - N/A   Overcast
11:35 PM 36.0 °F 27.5 °F 19.9 °F 52% 29.96 in 10.0 mi SE 12.7 mph - N/A   Mostly Cloudy
11:55 PM 35.8 °F 26.9 °F 20.1 °F 53% 29.94 in 10.0 mi SE 13.8 mph 18.4 mph N/A   Mostly Cloudy